DAL728 KORD-CYWG

Flight info

Callsign DAL728
Flight time 1h 44m
Altitude 36000
Route PMPKN DCT NEATO DCT DLLAN DCT RONIC DCT BAE J89 DLH DCT BIPKU NORAK6
Aircraft A320/M-SDE3FGHIRWY/LB1

Departure

Time 2026-05-07 15:14
Airport Chicago O'Hare International Airport (KORD)

Arrival

Time 2026-05-07 16:59
Airport Winnipeg / James Armstrong Richardson International Airport (CYWG)
Time Latitude Longitude Altitude Speed Heading
2026-05-07 15:02 41.97362 -87.88796 668 ft 0 kts
2026-05-07 15:06 41.97351 -87.88796 659 ft 2 kts
2026-05-07 15:07 41.97335 -87.88796 659 ft 2 kts 360°
2026-05-07 15:07 41.97318 -87.88795 659 ft 2 kts 360°
2026-05-07 15:07 41.97302 -87.88795 659 ft 2 kts 360°
2026-05-07 15:07 41.97286 -87.88795 658 ft 2 kts
2026-05-07 15:08 41.97271 -87.88804 659 ft 2 kts 80°
2026-05-07 15:08 41.97270 -87.88826 658 ft 2 kts 90°
2026-05-07 15:08 41.97270 -87.88842 658 ft 1 kts 90°
2026-05-07 15:08 41.97270 -87.88843 658 ft 0 kts 90°
2026-05-07 15:10 41.97270 -87.88841 658 ft 2 kts 89°
2026-05-07 15:10 41.97270 -87.88788 659 ft 10 kts 90°
2026-05-07 15:10 41.97268 -87.88684 659 ft 11 kts 99°
2026-05-07 15:11 41.97210 -87.88653 657 ft 10 kts 158°
2026-05-07 15:11 41.97197 -87.88573 658 ft 8 kts 89°
2026-05-07 15:11 41.97197 -87.88505 658 ft 8 kts 90°
2026-05-07 15:11 41.97197 -87.88402 660 ft 14 kts 90°
2026-05-07 15:12 41.97197 -87.88240 660 ft 20 kts 89°
2026-05-07 15:12 41.97194 -87.88072 660 ft 14 kts 108°
2026-05-07 15:12 41.97123 -87.88034 662 ft 10 kts 179°
2026-05-07 15:12 41.97055 -87.88033 664 ft 9 kts 179°
2026-05-07 15:13 41.96979 -87.88009 665 ft 13 kts 162°
2026-05-07 15:13 41.96934 -87.88048 665 ft 0 kts 221°
2026-05-07 15:14 41.96875 -87.88118 664 ft 39 kts 221°
2026-05-07 15:14 41.96482 -87.88582 668 ft 105 kts 221°
2026-05-07 15:14 41.95805 -87.89380 694 ft 150 kts 224°
2026-05-07 15:14 41.95038 -87.90290 1295 ft 147 kts 223°
2026-05-07 15:15 41.94273 -87.91194 2051 ft 146 kts 224°
2026-05-07 15:15 41.93589 -87.92232 2610 ft 156 kts 249°
2026-05-07 15:15 41.93482 -87.93745 2905 ft 177 kts 284°
2026-05-07 15:15 41.94192 -87.95213 3162 ft 205 kts 323°
2026-05-07 15:16 41.95644 -87.95793 3524 ft 236 kts 353°
2026-05-07 15:16 41.97369 -87.95795 4018 ft 257 kts 359°
2026-05-07 15:16 41.99176 -87.95650 4919 ft 262 kts 360°
2026-05-07 15:16 42.01004 -87.95469 5850 ft 265 kts 359°
2026-05-07 15:17 42.02856 -87.95292 6764 ft 268 kts 358°
2026-05-07 15:17 42.04722 -87.95130 7654 ft 270 kts 357°
2026-05-07 15:17 42.06601 -87.94983 8561 ft 272 kts 356°
2026-05-07 15:17 42.08493 -87.94847 9470 ft 273 kts 356°
2026-05-07 15:18 42.10402 -87.94720 10284 ft 279 kts 355°
2026-05-07 15:18 42.12421 -87.94599 10543 ft 302 kts 356°
2026-05-07 15:18 42.14579 -87.94471 10918 ft 319 kts 356°
2026-05-07 15:18 42.16813 -87.94328 11609 ft 324 kts 356°
2026-05-07 15:19 42.19075 -87.94175 12409 ft 327 kts 356°
2026-05-07 15:19 42.21355 -87.94019 13197 ft 330 kts 356°
2026-05-07 15:19 42.23656 -87.93862 13952 ft 332 kts 356°
2026-05-07 15:19 42.25978 -87.93706 14585 ft 336 kts 356°
2026-05-07 15:20 42.28301 -87.93552 15179 ft 341 kts 356°
2026-05-07 15:20 42.30687 -87.93415 15764 ft 344 kts 353°
2026-05-07 15:20 42.33081 -87.93629 16345 ft 346 kts 348°
2026-05-07 15:20 42.35496 -87.93921 16928 ft 351 kts 348°
2026-05-07 15:21 42.37944 -87.94220 17514 ft 356 kts 348°
2026-05-07 15:21 42.40428 -87.94520 18104 ft 361 kts 349°
2026-05-07 15:21 42.42945 -87.94821 18628 ft 366 kts 349°
2026-05-07 15:21 42.45489 -87.95124 19151 ft 369 kts 348°
2026-05-07 15:22 42.48059 -87.95429 19689 ft 372 kts 348°
2026-05-07 15:22 42.50650 -87.95740 20230 ft 375 kts 348°
2026-05-07 15:22 42.53260 -87.96057 20778 ft 378 kts 348°
2026-05-07 15:22 42.55897 -87.96382 21320 ft 382 kts 348°
2026-05-07 15:23 42.58556 -87.96713 21873 ft 385 kts 347°
2026-05-07 15:23 42.61231 -87.97048 22406 ft 388 kts 348°
2026-05-07 15:23 42.63939 -87.97362 22904 ft 392 kts 349°
2026-05-07 15:23 42.66681 -87.97598 23413 ft 397 kts 350°
2026-05-07 15:24 42.69447 -87.97801 23853 ft 398 kts 348°
2026-05-07 15:24 42.72164 -87.98397 24251 ft 394 kts 339°
2026-05-07 15:24 42.74731 -87.99596 24639 ft 388 kts 329°
2026-05-07 15:24 42.77094 -88.01325 25037 ft 385 kts 323°
2026-05-07 15:25 42.79421 -88.03151 25431 ft 387 kts 323°
2026-05-07 15:25 42.81766 -88.04988 25813 ft 389 kts 323°
2026-05-07 15:25 42.84119 -88.06827 26189 ft 391 kts 323°
2026-05-07 15:25 42.86489 -88.08679 26571 ft 393 kts 323°
2026-05-07 15:26 42.88866 -88.10540 26988 ft 394 kts 323°
2026-05-07 15:26 42.91219 -88.12386 27337 ft 396 kts 323°
2026-05-07 15:26 42.93614 -88.14265 27700 ft 398 kts 323°
2026-05-07 15:26 42.96024 -88.16151 28054 ft 400 kts 323°
2026-05-07 15:27 42.98445 -88.18044 28391 ft 402 kts 323°
2026-05-07 15:27 43.00880 -88.19949 28752 ft 404 kts 323°
2026-05-07 15:27 43.03332 -88.21868 29013 ft 408 kts 323°
2026-05-07 15:27 43.05807 -88.23812 29309 ft 411 kts 323°
2026-05-07 15:28 43.08288 -88.25763 29612 ft 413 kts 323°
2026-05-07 15:28 43.10784 -88.27725 29912 ft 415 kts 323°
2026-05-07 15:28 43.13177 -88.29888 30183 ft 412 kts 317°
2026-05-07 15:28 43.15507 -88.32181 30410 ft 414 kts 318°
2026-05-07 15:29 43.17851 -88.34483 30630 ft 415 kts 318°
2026-05-07 15:29 43.20204 -88.36793 30840 ft 417 kts 318°
2026-05-07 15:29 43.22569 -88.39117 31076 ft 419 kts 319°
2026-05-07 15:29 43.24945 -88.41456 31253 ft 421 kts 319°
2026-05-07 15:30 43.27323 -88.43800 31512 ft 421 kts 319°
2026-05-07 15:30 43.29706 -88.46151 31780 ft 421 kts 319°
2026-05-07 15:30 43.32080 -88.48500 32062 ft 420 kts 319°
2026-05-07 15:30 43.34445 -88.50840 32376 ft 419 kts 319°
2026-05-07 15:31 43.36809 -88.53179 32678 ft 418 kts 319°
2026-05-07 15:31 43.39170 -88.55516 32974 ft 418 kts 319°
2026-05-07 15:31 43.41526 -88.57844 33259 ft 417 kts 319°
2026-05-07 15:31 43.43880 -88.60178 33546 ft 418 kts 319°
2026-05-07 15:32 43.46239 -88.62523 33788 ft 418 kts 319°
2026-05-07 15:32 43.48598 -88.64872 34053 ft 418 kts 319°
2026-05-07 15:32 43.50954 -88.67224 34284 ft 418 kts 319°
2026-05-07 15:32 43.53308 -88.69575 34503 ft 418 kts 319°
2026-05-07 15:33 43.55668 -88.71932 34710 ft 419 kts 319°
2026-05-07 15:33 43.58028 -88.74286 34909 ft 419 kts 319°
2026-05-07 15:33 43.60389 -88.76646 35096 ft 419 kts 319°
2026-05-07 15:33 43.62751 -88.79014 35316 ft 420 kts 319°
2026-05-07 15:34 43.65116 -88.81389 35474 ft 421 kts 319°
2026-05-07 15:34 43.67487 -88.83772 35639 ft 422 kts 319°
2026-05-07 15:34 43.69860 -88.86155 35814 ft 422 kts 319°
2026-05-07 15:34 43.72203 -88.88510 35973 ft 422 kts 319°
2026-05-07 15:35 43.76940 -88.93272 36023 ft 420 kts 319°
2026-05-07 15:35 43.81660 -88.98031 36023 ft 420 kts 319°
2026-05-07 15:36 43.86384 -89.02801 36023 ft 420 kts 319°
2026-05-07 15:36 43.91116 -89.07581 36024 ft 421 kts 319°
2026-05-07 15:37 43.95046 -89.11556 36021 ft 421 kts 319°
2026-05-07 15:37 43.99769 -89.16359 36018 ft 421 kts 319°
2026-05-07 15:38 44.04494 -89.21179 36042 ft 421 kts 319°
2026-05-07 15:38 44.09225 -89.26004 36028 ft 422 kts 320°
2026-05-07 15:39 44.13957 -89.30826 36031 ft 421 kts 320°
2026-05-07 15:39 44.18676 -89.35665 36026 ft 421 kts 319°
2026-05-07 15:40 44.23390 -89.40517 36040 ft 421 kts 320°
2026-05-07 15:40 44.28116 -89.45369 36031 ft 422 kts 320°
2026-05-07 15:41 44.32835 -89.50233 36013 ft 422 kts 320°
2026-05-07 15:41 44.37559 -89.55110 36007 ft 422 kts 320°
2026-05-07 15:42 44.42248 -89.59959 36013 ft 422 kts 320°
2026-05-07 15:42 44.46966 -89.64860 36003 ft 422 kts 320°
2026-05-07 15:43 44.51685 -89.69773 35998 ft 423 kts 320°
2026-05-07 15:43 44.56407 -89.74687 35999 ft 423 kts 320°
2026-05-07 15:44 44.61129 -89.79603 36003 ft 423 kts 320°
2026-05-07 15:44 44.65850 -89.84539 36014 ft 423 kts 320°
2026-05-07 15:45 44.70571 -89.89496 36006 ft 424 kts 320°
2026-05-07 15:45 44.75299 -89.94461 36001 ft 424 kts 320°
2026-05-07 15:46 44.82354 -90.01885 35996 ft 424 kts 320°
2026-05-07 15:47 44.87066 -90.06872 36001 ft 423 kts 320°
2026-05-07 15:47 44.91776 -90.11854 36004 ft 423 kts 320°
2026-05-07 15:48 44.96485 -90.16832 36009 ft 423 kts 320°
2026-05-07 15:48 45.01191 -90.21822 36001 ft 423 kts 320°
2026-05-07 15:49 45.05896 -90.26818 35991 ft 423 kts 320°
2026-05-07 15:49 45.10596 -90.31843 35991 ft 423 kts 320°
2026-05-07 15:50 45.15296 -90.36867 35979 ft 423 kts 320°
2026-05-07 15:50 45.19992 -90.41907 36001 ft 423 kts 320°
2026-05-07 15:51 45.24687 -90.46947 35998 ft 423 kts 320°
2026-05-07 15:51 45.29382 -90.51992 35998 ft 423 kts 320°
2026-05-07 15:52 45.34074 -90.57044 36010 ft 423 kts 320°
2026-05-07 15:52 45.38762 -90.62108 36009 ft 423 kts 320°
2026-05-07 15:53 45.43415 -90.67155 36001 ft 423 kts 320°
2026-05-07 15:53 45.48097 -90.72243 36005 ft 423 kts 320°
2026-05-07 15:54 45.52778 -90.77334 36005 ft 423 kts 320°
2026-05-07 15:54 45.57460 -90.82434 36008 ft 423 kts 320°
2026-05-07 15:55 45.62129 -90.87539 36002 ft 423 kts 320°
2026-05-07 15:55 45.66801 -90.92651 36004 ft 423 kts 320°
2026-05-07 15:56 45.71470 -90.97762 36000 ft 423 kts 320°
2026-05-07 15:56 45.76139 -91.02884 35999 ft 423 kts 320°
2026-05-07 15:57 45.80802 -91.08023 36005 ft 423 kts 320°
2026-05-07 15:57 45.85466 -91.13170 35994 ft 423 kts 320°
2026-05-07 15:58 45.90127 -91.18327 35972 ft 423 kts 320°
2026-05-07 15:58 45.94789 -91.23489 35977 ft 423 kts 320°
2026-05-07 15:59 45.99440 -91.28657 35988 ft 422 kts 320°
2026-05-07 15:59 46.04085 -91.33834 35982 ft 422 kts 320°
2026-05-07 16:00 46.08726 -91.39023 35976 ft 422 kts 320°
2026-05-07 16:00 46.13336 -91.44182 35977 ft 422 kts 320°
2026-05-07 16:01 46.17975 -91.49371 35991 ft 422 kts 320°
2026-05-07 16:01 46.22611 -91.54592 35977 ft 422 kts 320°
2026-05-07 16:02 46.27243 -91.59818 35950 ft 422 kts 320°
2026-05-07 16:02 46.31870 -91.65043 35956 ft 422 kts 320°
2026-05-07 16:03 46.36498 -91.70273 35976 ft 421 kts 320°
2026-05-07 16:03 46.41118 -91.75496 35993 ft 422 kts 320°
2026-05-07 16:04 46.45737 -91.80736 35989 ft 422 kts 320°
2026-05-07 16:04 46.50350 -91.85995 35983 ft 421 kts 320°
2026-05-07 16:05 46.54959 -91.91259 35972 ft 422 kts 320°
2026-05-07 16:05 46.59570 -91.96521 35974 ft 422 kts 320°
2026-05-07 16:06 46.64182 -92.01805 35971 ft 422 kts 320°
2026-05-07 16:06 46.68755 -92.07061 35964 ft 421 kts 320°
2026-05-07 16:07 46.73350 -92.12348 35967 ft 421 kts 320°
2026-05-07 16:07 46.77945 -92.17645 35939 ft 421 kts 320°
2026-05-07 16:08 46.82446 -92.23091 35939 ft 420 kts 317°
2026-05-07 16:08 46.86703 -92.28939 35939 ft 420 kts 315°
2026-05-07 16:09 46.90888 -92.34884 35944 ft 420 kts 315°
2026-05-07 16:09 46.95106 -92.40788 35958 ft 420 kts 315°
2026-05-07 16:10 46.99356 -92.46652 35946 ft 420 kts 316°
2026-05-07 16:10 47.03607 -92.52507 35966 ft 419 kts 316°
2026-05-07 16:11 47.07842 -92.58365 35979 ft 418 kts 316°
2026-05-07 16:11 47.12067 -92.64244 35974 ft 418 kts 316°
2026-05-07 16:12 47.16287 -92.70123 35977 ft 418 kts 316°
2026-05-07 16:12 47.20501 -92.76015 35968 ft 418 kts 316°
2026-05-07 16:13 47.24707 -92.81924 35941 ft 418 kts 316°
2026-05-07 16:13 47.28917 -92.87838 35932 ft 418 kts 316°
2026-05-07 16:14 47.33128 -92.93747 35923 ft 418 kts 316°
2026-05-07 16:14 47.37322 -92.99667 35940 ft 417 kts 316°
2026-05-07 16:15 47.41511 -93.05588 35945 ft 417 kts 316°
2026-05-07 16:15 47.45703 -93.11510 35952 ft 417 kts 316°
2026-05-07 16:16 47.49879 -93.17449 35966 ft 417 kts 316°
2026-05-07 16:16 47.54023 -93.23358 35978 ft 417 kts 316°
2026-05-07 16:17 47.58199 -93.29310 35991 ft 417 kts 316°
2026-05-07 16:17 47.62373 -93.35278 35972 ft 417 kts 316°
2026-05-07 16:18 47.66541 -93.41246 35980 ft 416 kts 316°
2026-05-07 16:18 47.70703 -93.47223 35986 ft 416 kts 316°
2026-05-07 16:19 47.74857 -93.53215 35999 ft 416 kts 316°
2026-05-07 16:19 47.79012 -93.59212 35993 ft 416 kts 316°
2026-05-07 16:20 47.83168 -93.65218 35988 ft 417 kts 316°
2026-05-07 16:20 47.87318 -93.71240 35986 ft 417 kts 316°
2026-05-07 16:21 47.91435 -93.77235 35986 ft 417 kts 316°
2026-05-07 16:21 47.95583 -93.83281 35998 ft 417 kts 316°
2026-05-07 16:22 47.99733 -93.89330 35991 ft 417 kts 316°
2026-05-07 16:22 48.03884 -93.95397 35985 ft 417 kts 316°
2026-05-07 16:23 48.08029 -94.01485 35986 ft 418 kts 316°
2026-05-07 16:23 48.12169 -94.07583 35979 ft 418 kts 316°
2026-05-07 16:24 48.16306 -94.13693 35985 ft 418 kts 316°
2026-05-07 16:24 48.20257 -94.19539 35976 ft 418 kts 316°
2026-05-07 16:25 48.24397 -94.25672 35969 ft 418 kts 316°
2026-05-07 16:25 48.28534 -94.31810 35962 ft 418 kts 316°
2026-05-07 16:26 48.31968 -94.36915 35966 ft 418 kts 316°
2026-05-07 16:26 48.36096 -94.43070 35978 ft 418 kts 316°
2026-05-07 16:27 48.40217 -94.49235 35981 ft 418 kts 316°
2026-05-07 16:27 48.44335 -94.55415 35982 ft 418 kts 316°
2026-05-07 16:28 48.48454 -94.61601 35985 ft 418 kts 316°
2026-05-07 16:28 48.52567 -94.67795 35975 ft 418 kts 316°
2026-05-07 16:29 48.56676 -94.74010 35996 ft 418 kts 316°
2026-05-07 16:29 48.60785 -94.80232 35980 ft 418 kts 316°
2026-05-07 16:30 48.64888 -94.86457 35992 ft 418 kts 316°
2026-05-07 16:30 48.68990 -94.92680 35993 ft 417 kts 316°
2026-05-07 16:31 48.73071 -94.98899 35993 ft 417 kts 316°
2026-05-07 16:31 48.77129 -95.05103 35989 ft 417 kts 316°
2026-05-07 16:32 48.81207 -95.11357 35940 ft 418 kts 316°
2026-05-07 16:32 48.83244 -95.14492 35691 ft 416 kts 316°
2026-05-07 16:32 48.85275 -95.17619 35316 ft 416 kts 316°
2026-05-07 16:32 48.87309 -95.20751 34522 ft 418 kts 316°
2026-05-07 16:33 48.89361 -95.23911 33681 ft 420 kts 316°
2026-05-07 16:33 48.91413 -95.27069 32872 ft 417 kts 316°
2026-05-07 16:33 48.93419 -95.30168 32440 ft 407 kts 316°
2026-05-07 16:33 48.95386 -95.33215 31900 ft 401 kts 316°
2026-05-07 16:34 48.97322 -95.36217 31359 ft 394 kts 316°
2026-05-07 16:34 48.99229 -95.39172 30862 ft 388 kts 317°
2026-05-07 16:34 49.01107 -95.42080 30354 ft 382 kts 317°
2026-05-07 16:34 49.02958 -95.44954 29826 ft 377 kts 317°
2026-05-07 16:35 49.04776 -95.47789 29312 ft 371 kts 317°
2026-05-07 16:35 49.06538 -95.50541 28806 ft 365 kts 317°
2026-05-07 16:35 49.08299 -95.53289 28299 ft 360 kts 317°
2026-05-07 16:35 49.10050 -95.55974 27810 ft 354 kts 318°
2026-05-07 16:36 49.11799 -95.58585 27322 ft 349 kts 319°
2026-05-07 16:36 49.13538 -95.61149 26850 ft 345 kts 319°
2026-05-07 16:36 49.15252 -95.63669 26385 ft 340 kts 319°
2026-05-07 16:36 49.16948 -95.66166 25946 ft 336 kts 319°
2026-05-07 16:37 49.18622 -95.68641 25516 ft 333 kts 319°
2026-05-07 16:37 49.20272 -95.71095 25090 ft 329 kts 319°
2026-05-07 16:37 49.21902 -95.73534 24667 ft 326 kts 319°
2026-05-07 16:37 49.23509 -95.75945 24262 ft 322 kts 319°
2026-05-07 16:38 49.25098 -95.78331 23820 ft 318 kts 319°
2026-05-07 16:38 49.26674 -95.80689 23418 ft 314 kts 319°
2026-05-07 16:38 49.28227 -95.83015 22973 ft 310 kts 319°
2026-05-07 16:38 49.29736 -95.85283 22567 ft 306 kts 319°
2026-05-07 16:39 49.31245 -95.87554 22169 ft 302 kts 319°
2026-05-07 16:39 49.32734 -95.89793 21766 ft 299 kts 319°
2026-05-07 16:39 49.34216 -95.92020 21368 ft 297 kts 319°
2026-05-07 16:39 49.35683 -95.94231 20969 ft 295 kts 319°
2026-05-07 16:40 49.37143 -95.96433 20562 ft 293 kts 319°
2026-05-07 16:40 49.38596 -95.98628 20152 ft 293 kts 319°
2026-05-07 16:40 49.40046 -96.00818 19747 ft 292 kts 319°
2026-05-07 16:40 49.41487 -96.02994 19344 ft 290 kts 319°
2026-05-07 16:41 49.42923 -96.05168 18942 ft 289 kts 319°
2026-05-07 16:41 49.44352 -96.07336 18549 ft 288 kts 319°
2026-05-07 16:41 49.45775 -96.09492 18140 ft 287 kts 319°
2026-05-07 16:41 49.47198 -96.11643 17733 ft 285 kts 319°
2026-05-07 16:42 49.48605 -96.13775 17446 ft 283 kts 319°
2026-05-07 16:42 49.50000 -96.15899 17077 ft 281 kts 319°
2026-05-07 16:42 49.51387 -96.18013 16701 ft 280 kts 318°
2026-05-07 16:42 49.52766 -96.20117 16323 ft 279 kts 318°
2026-05-07 16:43 49.54125 -96.22193 15952 ft 278 kts 318°
2026-05-07 16:43 49.55497 -96.24285 15583 ft 277 kts 318°
2026-05-07 16:43 49.56865 -96.26371 15210 ft 276 kts 318°
2026-05-07 16:43 49.58229 -96.28450 14841 ft 276 kts 318°
2026-05-07 16:44 49.58274 -96.28519 14827 ft 276 kts 318°
2026-05-07 16:45 49.59353 -96.30092 16393 ft 202 kts 320°
2026-05-07 16:45 49.60381 -96.31577 17321 ft 217 kts 320°
2026-05-07 16:45 49.61613 -96.33416 16591 ft 270 kts 318°
2026-05-07 16:45 49.62948 -96.35492 15800 ft 274 kts 317°
2026-05-07 16:46 49.64282 -96.37598 15041 ft 275 kts 317°
2026-05-07 16:46 49.65622 -96.39709 14314 ft 275 kts 317°
2026-05-07 16:46 49.67204 -96.41449 13539 ft 284 kts 338°
2026-05-07 16:46 49.69148 -96.41954 12717 ft 290 kts 359°
2026-05-07 16:47 49.71143 -96.41192 11928 ft 307 kts 23°
2026-05-07 16:47 49.72962 -96.39538 11881 ft 301 kts 26°
2026-05-07 16:47 49.74847 -96.38434 11772 ft 282 kts
2026-05-07 16:47 49.76729 -96.38712 11607 ft 267 kts 339°
2026-05-07 16:48 49.78293 -96.40123 11441 ft 261 kts 318°
2026-05-07 16:48 49.79363 -96.42395 11278 ft 266 kts 296°
2026-05-07 16:48 49.79746 -96.45213 11090 ft 274 kts 273°
2026-05-07 16:48 49.79305 -96.48108 10902 ft 284 kts 248°
2026-05-07 16:49 49.78042 -96.50505 10697 ft 295 kts 221°
2026-05-07 16:49 49.76181 -96.51917 10570 ft 301 kts 204°
2026-05-07 16:49 49.74348 -96.53324 10326 ft 293 kts 222°
2026-05-07 16:49 49.73010 -96.55580 10256 ft 282 kts 245°
2026-05-07 16:50 49.72340 -96.58355 10149 ft 272 kts 266°
2026-05-07 16:50 49.72364 -96.61233 9872 ft 269 kts 283°
2026-05-07 16:50 49.72684 -96.64087 9419 ft 268 kts 283°
2026-05-07 16:50 49.73022 -96.66909 8904 ft 269 kts 284°
2026-05-07 16:51 49.73362 -96.69719 8600 ft 263 kts 283°
2026-05-07 16:51 49.73696 -96.72491 8173 ft 262 kts 283°
2026-05-07 16:51 49.74024 -96.75230 7569 ft 257 kts 283°
2026-05-07 16:51 49.74346 -96.77938 6972 ft 256 kts 282°
2026-05-07 16:52 49.74666 -96.80651 6482 ft 257 kts 282°
2026-05-07 16:52 49.74983 -96.83362 6062 ft 255 kts 282°
2026-05-07 16:52 49.75295 -96.86066 5611 ft 254 kts 282°
2026-05-07 16:52 49.75605 -96.88749 5171 ft 252 kts 281°
2026-05-07 16:53 49.75912 -96.91414 4717 ft 251 kts 281°
2026-05-07 16:53 49.76209 -96.94002 4565 ft 234 kts 281°
2026-05-07 16:53 49.76477 -96.96357 4487 ft 214 kts 282°
2026-05-07 16:53 49.76730 -96.98564 4386 ft 203 kts 281°
2026-05-07 16:54 49.76970 -97.00660 4298 ft 192 kts 281°
2026-05-07 16:54 49.77196 -97.02647 4217 ft 185 kts 281°
2026-05-07 16:54 49.77418 -97.04595 4140 ft 183 kts 282°
2026-05-07 16:54 49.77796 -97.06426 4022 ft 175 kts 300°
2026-05-07 16:55 49.78554 -97.07835 3800 ft 168 kts 318°
2026-05-07 16:55 49.79425 -97.09016 3574 ft 165 kts 318°
2026-05-07 16:55 49.80274 -97.10172 3355 ft 161 kts 318°
2026-05-07 16:55 49.81088 -97.11280 3132 ft 150 kts 318°
2026-05-07 16:56 49.81845 -97.12310 2931 ft 144 kts 318°
2026-05-07 16:56 49.82589 -97.13325 2739 ft 141 kts 319°
2026-05-07 16:56 49.84043 -97.15308 2348 ft 141 kts 319°
2026-05-07 16:57 49.84775 -97.16306 2154 ft 141 kts 319°
2026-05-07 16:57 49.85506 -97.17303 1955 ft 140 kts 319°
2026-05-07 16:57 49.86232 -97.18299 1757 ft 140 kts 317°
2026-05-07 16:57 49.86952 -97.19302 1516 ft 138 kts 318°
2026-05-07 16:58 49.87668 -97.20294 1322 ft 139 kts 319°
2026-05-07 16:58 49.88395 -97.21278 1135 ft 138 kts 318°
2026-05-07 16:58 49.89113 -97.22254 927 ft 138 kts 319°
2026-05-07 16:58 49.89822 -97.23212 787 ft 129 kts 319°
2026-05-07 16:59 49.90391 -97.23984 783 ft 84 kts 319°
2026-05-07 16:59 49.90686 -97.24386 787 ft 33 kts 318°
2026-05-07 16:59 49.90805 -97.24479 788 ft 15 kts 27°
2026-05-07 16:59 49.90837 -97.24438 788 ft 3 kts 41°
2026-05-07 17:00 49.90844 -97.24427 788 ft 0 kts 41°
2026-05-07 17:01 49.90859 -97.24407 789 ft 6 kts 41°
2026-05-07 17:01 49.90912 -97.24333 789 ft 15 kts 42°
2026-05-07 17:02 49.91013 -97.24192 785 ft 21 kts 43°
2026-05-07 17:02 49.91117 -97.24045 782 ft 22 kts 41°
2026-05-07 17:02 49.91219 -97.23885 782 ft 19 kts 62°
2026-05-07 17:02 49.91217 -97.23693 783 ft 17 kts 97°
2026-05-07 17:03 49.91147 -97.23562 784 ft 18 kts 153°
2026-05-07 17:03 49.91023 -97.23470 783 ft 20 kts 155°
2026-05-07 17:03 49.90899 -97.23379 782 ft 19 kts 155°
2026-05-07 17:03 49.90782 -97.23297 780 ft 18 kts 156°
2026-05-07 17:04 49.90689 -97.23199 782 ft 15 kts 116°
2026-05-07 17:04 49.90695 -97.23053 783 ft 13 kts 78°
2026-05-07 17:04 49.90713 -97.22921 782 ft 12 kts 78°
2026-05-07 17:04 49.90728 -97.22801 782 ft 10 kts 78°
2026-05-07 17:05 49.90728 -97.22706 783 ft 7 kts 141°
2026-05-07 17:05 49.90686 -97.22685 784 ft 4 kts 163°
2026-05-07 17:05 49.90667 -97.22677 784 ft 0 kts 164°